Radiation Dose measured at exhaust stack monitor of Fukushima Daiichi Nuclear Power Station
Date,Time,Unit 5 6 shared exhaust cylinders,Wind Direction,Wind Velocity(m/s)
2021/10/06,00:00,3.8,southwest,7.1
2021/10/06,00:10,3.8,south-southwest,5.2
2021/10/06,00:20,3.9,southwest,3.3
2021/10/06,00:30,3.8,southwest,6.9
2021/10/06,00:40,3.7,south-southwest,6.5
2021/10/06,00:50,4.0,southwest,4.6
2021/10/06,01:00,3.8,south-southwest,5.9
2021/10/06,01:10,3.9,south,5.9
2021/10/06,01:20,3.7,south,6.0
2021/10/06,01:30,3.9,south-southwest,6.6
2021/10/06,01:40,3.8,south,5.5
2021/10/06,01:50,3.9,south,6.3
2021/10/06,02:00,3.8,south,5.7
2021/10/06,02:10,3.9,south-southeast,4.6
2021/10/06,02:20,3.9,south,4.7
2021/10/06,02:30,3.8,south,2.6
2021/10/06,02:40,4.0,west-southwest,3.3
2021/10/06,02:50,3.8,west-southwest,2.6
2021/10/06,03:00,3.9,west-southwest,3.0
2021/10/06,03:10,4.0,west-southwest,3.9
2021/10/06,03:20,3.9,west-southwest,3.9
2021/10/06,03:30,3.8,west,3.9
2021/10/06,03:40,3.9,west-southwest,0.6
2021/10/06,03:50,3.8,west,1.2
2021/10/06,04:00,3.9,west-northwest,1.1
2021/10/06,04:10,4.0,west,1.5
2021/10/06,04:20,3.8,west,3.1
2021/10/06,04:30,4.0,west-northwest,2.5
2021/10/06,04:40,4.0,north,5.0
2021/10/06,04:50,4.0,north,6.1
2021/10/06,05:00,3.9,north-northwest,6.6
2021/10/06,05:10,3.9,north-northwest,6.1
2021/10/06,05:20,3.7,north,5.6
2021/10/06,05:30,3.8,north,6.8
2021/10/06,05:40,3.9,north,6.9
2021/10/06,05:50,3.6,north-northeast,5.8
2021/10/06,06:00,3.8,north,5.2
2021/10/06,06:10,3.9,north,5.0
2021/10/06,06:20,3.9,north,5.9
2021/10/06,06:30,3.9,north,5.9
2021/10/06,06:40,3.7,north,5.8
2021/10/06,06:50,3.8,north,6.6
2021/10/06,07:00,3.7,north,6.5
2021/10/06,07:10,3.8,north,5.6
2021/10/06,07:20,3.9,north-northeast,7.5
2021/10/06,07:30,3.8,north-northeast,8.3
2021/10/06,07:40,4.0,northeast,8.9
2021/10/06,07:50,3.9,north-northeast,9.7
2021/10/06,08:00,3.9,northeast,8.3
2021/10/06,08:10,3.8,northeast,7.4
2021/10/06,08:20,3.9,northeast,7.1
2021/10/06,08:30,3.9,northeast,7.4
2021/10/06,08:40,3.7,north-northeast,5.7
2021/10/06,08:50,3.9,northeast,6.1
2021/10/06,09:00,4.0,north-northeast,5.7
2021/10/06,09:10,3.9,north-northeast,6.6
2021/10/06,09:20,3.9,north-northeast,6.7
2021/10/06,09:30,3.9,northeast,6.6
2021/10/06,09:40,3.8,north-northeast,6.3
2021/10/06,09:50,3.8,northeast,6.8
2021/10/06,10:00,3.9,northeast,5.8
2021/10/06,10:10,3.9,northeast,5.2
2021/10/06,10:20,3.9,north-northeast,5.9
2021/10/06,10:30,3.8,northeast,4.0
2021/10/06,10:40,3.9,north-northeast,4.4
2021/10/06,10:50,3.9,northeast,4.0
2021/10/06,11:00,3.8,northeast,6.3
2021/10/06,11:10,4.0,north-northeast,4.7
2021/10/06,11:20,3.9,northeast,6.2
2021/10/06,11:30,3.9,northeast,5.3
2021/10/06,11:40,3.9,northeast,5.6
2021/10/06,11:50,3.9,northeast,5.9
2021/10/06,12:00,3.8,northeast,5.5
2021/10/06,12:10,3.7,north-northeast,5.8
2021/10/06,12:20,3.8,north-northeast,5.8
2021/10/06,12:30,3.7,north-northeast,3.8
2021/10/06,12:40,3.9,north-northwest,4.4
2021/10/06,12:50,3.6,north,4.0
2021/10/06,13:00,3.8,north-northwest,4.0
2021/10/06,13:10,3.9,north,4.5
2021/10/06,13:20,3.9,north,3.3
2021/10/06,13:30,3.9,north,3.3
2021/10/06,13:40,3.7,north,2.9
2021/10/06,13:50,3.8,north,3.8
2021/10/06,14:00,3.7,north,4.6
2021/10/06,14:10,3.9,north,4.6
2021/10/06,14:20,3.9,north-northwest,4.6
2021/10/06,14:30,3.9,north-northwest,3.7
2021/10/06,14:40,3.7,northwest,3.8
2021/10/06,14:50,3.8,north-northwest,4.3
2021/10/06,15:00,3.6,north-northwest,3.6
2021/10/06,15:10,3.8,north-northwest,3.8
2021/10/06,15:20,3.9,north-northwest,3.9
2021/10/06,15:30,3.8,north-northwest,3.3
2021/10/06,15:40,4.0,north-northwest,2.6
2021/10/06,15:50,3.9,northwest,3.4
2021/10/06,16:00,3.9,north-northwest,2.8
2021/10/06,16:10,4.0,north-northwest,3.0
2021/10/06,16:20,3.9,northwest,3.3
2021/10/06,16:30,4.0,northwest,3.1
2021/10/06,16:40,3.9,northwest,2.0
2021/10/06,16:50,3.9,northwest,2.8
2021/10/06,17:00,3.8,northwest,3.0
2021/10/06,17:10,3.9,northwest,2.9
2021/10/06,17:20,3.8,northwest,2.9
2021/10/06,17:30,4.0,northwest,3.1
2021/10/06,17:40,3.8,northwest,3.1
2021/10/06,17:50,3.9,northwest,3.5
2021/10/06,18:00,3.8,northwest,3.5
2021/10/06,18:10,3.8,northwest,3.1
2021/10/06,18:20,4.1,northwest,2.9
2021/10/06,18:30,3.8,northwest,2.6
2021/10/06,18:40,3.7,northwest,3.4
2021/10/06,18:50,3.8,northwest,2.6
2021/10/06,19:00,4.0,northwest,2.9
2021/10/06,19:10,4.0,north-northwest,3.0
2021/10/06,19:20,3.7,north-northwest,3.2
2021/10/06,19:30,3.8,northwest,2.3
2021/10/06,19:40,3.8,northwest,2.0
2021/10/06,19:50,3.9,northwest,1.7
2021/10/06,20:00,3.8,northwest,2.0
2021/10/06,20:10,3.9,north-northwest,2.0
2021/10/06,20:20,3.8,northwest,2.3
2021/10/06,20:30,3.7,northwest,3.1
2021/10/06,20:40,3.8,northwest,1.7
2021/10/06,20:50,4.1,northwest,2.2
2021/10/06,21:00,4.0,north-northwest,2.2
2021/10/06,21:10,3.8,north-northwest,2.0
2021/10/06,21:20,3.9,northwest,2.0
2021/10/06,21:30,4.0,northwest,1.7
2021/10/06,21:40,3.8,northwest,1.7
2021/10/06,21:50,3.8,west-northwest,1.9
2021/10/06,22:00,3.9,west-southwest,1.9
2021/10/06,22:10,3.9,west,1.4
2021/10/06,22:20,4.0,west-southwest,1.5
2021/10/06,22:30,3.8,west-southwest,1.5
2021/10/06,22:40,3.7,west-southwest,0.9
2021/10/06,22:50,3.8,southwest,1.2
2021/10/06,23:00,3.9,west-southwest,1.2
2021/10/06,23:10,3.9,southwest,1.4
2021/10/06,23:20,3.6,southwest,1.7
2021/10/06,23:30,3.8,southwest,1.5
2021/10/06,23:40,3.8,southwest,1.5
2021/10/06,23:50,3.9,southwest,1.5
